Location: *
(49.3500°N, 12.6000°E)
Time: 11:53:29
(UTC+00:00)

SJ 16-02 - Pass Details

Date: 18 October 2019
Orbit: 607 x 616 km, 75.0° (Epoch: 14 November)

Event Time Altitude Azimuth Distance (km) Brightness Sun altitude
Rises 17:34:40 0° 349° (N) 2,885 5.0 -13.8°
Reaches altitude 10° 17:37:46 10° 12° (NNE) 1,973 3.8 -14.3°
Enters shadow 17:40:24 16° 49° (NE) 1,632 3.1 -14.8°
